����������;��������(kVARh)
2017-12-04 00:00;12,05
2017-12-04 00:15;11,55
2017-12-04 00:30;7,05
2017-12-04 00:45;10,65
2017-12-04 01:00;10,35
2017-12-04 01:15;13,1
2017-12-04 01:30;10,55
2017-12-04 01:45;11,5
2017-12-04 02:00;11,4
2017-12-04 02:15;12,8
2017-12-04 02:30;9,1
2017-12-04 02:45;9,5
2017-12-04 03:00;8,95
2017-12-04 03:15;10,4
2017-12-04 03:30;11,5
2017-12-04 03:45;10,45
2017-12-04 04:00;12,5
2017-12-04 04:15;10,95
2017-12-04 04:30;11,5
2017-12-04 04:45;10,25
2017-12-04 05:00;11,25
2017-12-04 05:15;11,35
2017-12-04 05:30;9,2
2017-12-04 05:45;10
2017-12-04 06:00;6,4
2017-12-04 06:15;8,9
2017-12-04 06:30;7,2
2017-12-04 06:45;8,55
2017-12-04 07:00;5,95
2017-12-04 07:15;11,75
2017-12-04 07:30;11,05
2017-12-04 07:45;13,9
2017-12-04 08:00;12,3
2017-12-04 08:15;11,1
2017-12-04 08:30;15,7
2017-12-04 08:45;32,4
2017-12-04 09:00;39
2017-12-04 09:15;39,9
2017-12-04 09:30;42
2017-12-04 09:45;39,6
2017-12-04 10:00;38,85
2017-12-04 10:15;40,3
2017-12-04 10:30;39,65
2017-12-04 10:45;44,65
2017-12-04 11:00;44,95
2017-12-04 11:15;41,15
2017-12-04 11:30;42,35
2017-12-04 11:45;41,3
2017-12-04 12:00;38,6
2017-12-04 12:15;41,15
2017-12-04 12:30;42,7
2017-12-04 12:45;40,35
2017-12-04 13:00;42,15
2017-12-04 13:15;41,4
2017-12-04 13:30;45,05
2017-12-04 13:45;47,2
2017-12-04 14:00;47,6
2017-12-04 14:15;49,4
2017-12-04 14:30;47,1
2017-12-04 14:45;49,05
2017-12-04 15:00;47,5
2017-12-04 15:15;45,35
2017-12-04 15:30;43,4
2017-12-04 15:45;43,5
2017-12-04 16:00;41,3
2017-12-04 16:15;43,75
2017-12-04 16:30;43,15
2017-12-04 16:45;41,35
2017-12-04 17:00;41,45
2017-12-04 17:15;39,9
2017-12-04 17:30;36,6
2017-12-04 17:45;33,6
2017-12-04 18:00;32,35
2017-12-04 18:15;32,85
2017-12-04 18:30;32,8
2017-12-04 18:45;32,4
2017-12-04 19:00;30,6
2017-12-04 19:15;30,25
2017-12-04 19:30;22,5
2017-12-04 19:45;25,95
2017-12-04 20:00;19,45
2017-12-04 20:15;25,15
2017-12-04 20:30;23,85
2017-12-04 20:45;29,05
2017-12-04 21:00;23,05
2017-12-04 21:15;28
2017-12-04 21:30;25,15
2017-12-04 21:45;26,05
2017-12-04 22:00;22,95
2017-12-04 22:15;24,9
2017-12-04 22:30;14,7
2017-12-04 22:45;14,35
2017-12-04 23:00;16,5
2017-12-04 23:15;18,25
2017-12-04 23:30;23,85
2017-12-04 23:45;22
2017-12-05 00:00;20,05
2017-12-05 00:15;23,2
2017-12-05 00:30;21,5
2017-12-05 00:45;21,35
2017-12-05 01:00;17
2017-12-05 01:15;13,95
2017-12-05 01:30;17,5
2017-12-05 01:45;12,5
2017-12-05 02:00;11
2017-12-05 02:15;10,25
2017-12-05 02:30;10,7
2017-12-05 02:45;12,05
2017-12-05 03:00;10,5
2017-12-05 03:15;10,8
2017-12-05 03:30;11,3
2017-12-05 03:45;11,2
2017-12-05 04:00;11,1
2017-12-05 04:15;10,15
2017-12-05 04:30;7,7
2017-12-05 04:45;11,55
2017-12-05 05:00;8,15
2017-12-05 05:15;10,55
2017-12-05 05:30;10,1
2017-12-05 05:45;10
2017-12-05 06:00;11
2017-12-05 06:15;13,45
2017-12-05 06:30;10,85
2017-12-05 06:45;8,35
2017-12-05 07:00;8,85
2017-12-05 07:15;15
2017-12-05 07:30;14,5
2017-12-05 07:45;15,6
2017-12-05 08:00;21,2
2017-12-05 08:15;23,95
2017-12-05 08:30;25,8
2017-12-05 08:45;30,65
2017-12-05 09:00;52,6
2017-12-05 09:15;72,4
2017-12-05 09:30;55,1
2017-12-05 09:45;61,9
2017-12-05 10:00;53,75
2017-12-05 10:15;50,25
2017-12-05 10:30;58,65
2017-12-05 10:45;63,15
2017-12-05 11:00;56,35
2017-12-05 11:15;64,4
2017-12-05 11:30;64,45
2017-12-05 11:45;66,2
2017-12-05 12:00;57,15
2017-12-05 12:15;62,2
2017-12-05 12:30;53,75
2017-12-05 12:45;66,6
2017-12-05 13:00;61,65
2017-12-05 13:15;65
2017-12-05 13:30;60
2017-12-05 13:45;54,55
2017-12-05 14:00;65,8
2017-12-05 14:15;57,35
2017-12-05 14:30;57,5
2017-12-05 14:45;49,35
2017-12-05 15:00;53,3
2017-12-05 15:15;51,85
2017-12-05 15:30;54,45
2017-12-05 15:45;47,9
2017-12-05 16:00;45,1
2017-12-05 16:15;50,75
2017-12-05 16:30;40,7
2017-12-05 16:45;47,6
2017-12-05 17:00;38,7
2017-12-05 17:15;47,65
2017-12-05 17:30;40,15
2017-12-05 17:45;40,25
2017-12-05 18:00;35,8
2017-12-05 18:15;31,8
2017-12-05 18:30;41,25
2017-12-05 18:45;30,5
2017-12-05 19:00;31,9
2017-12-05 19:15;24,7
2017-12-05 19:30;28,45
2017-12-05 19:45;22,3
2017-12-05 20:00;24,2
2017-12-05 20:15;20,1
2017-12-05 20:30;17,45
2017-12-05 20:45;22,35
2017-12-05 21:00;15,95
2017-12-05 21:15;18,9
2017-12-05 21:30;24,55
2017-12-05 21:45;18,6
2017-12-05 22:00;22,6
2017-12-05 22:15;19,3
2017-12-05 22:30;19,75
2017-12-05 22:45;18,65
2017-12-05 23:00;16,9
2017-12-05 23:15;22,5
2017-12-05 23:30;13,2
2017-12-05 23:45;10
2017-12-06 00:00;12,3
2017-12-06 00:15;8,65
2017-12-06 00:30;13,25
2017-12-06 00:45;9,9
2017-12-06 01:00;7,15
2017-12-06 01:15;7,75
2017-12-06 01:30;6
2017-12-06 01:45;10,75
2017-12-06 02:00;5,7
2017-12-06 02:15;10,2
2017-12-06 02:30;7,15
2017-12-06 02:45;11,5
2017-12-06 03:00;8,5
2017-12-06 03:15;12,1
2017-12-06 03:30;7,65
2017-12-06 03:45;10,55
2017-12-06 04:00;14,85
2017-12-06 04:15;10,35
2017-12-06 04:30;11,8
2017-12-06 04:45;8,3
2017-12-06 05:00;15,8
2017-12-06 05:15;9,15
2017-12-06 05:30;9,55
2017-12-06 05:45;13,1
2017-12-06 06:00;8,8
2017-12-06 06:15;22,2
2017-12-06 06:30;18,1
2017-12-06 06:45;20,4
2017-12-06 07:00;18,3
2017-12-06 07:15;23,8
2017-12-06 07:30;18
2017-12-06 07:45;32,45
2017-12-06 08:00;22,4
2017-12-06 08:15;28,7
2017-12-06 08:30;31,85
2017-12-06 08:45;52,1
2017-12-06 09:00;50,6
2017-12-06 09:15;53,5
2017-12-06 09:30;49
2017-12-06 09:45;54,7
2017-12-06 10:00;54,9
2017-12-06 10:15;53,5
2017-12-06 10:30;53,2
2017-12-06 10:45;51,6
2017-12-06 11:00;56,5
2017-12-06 11:15;54,8
2017-12-06 11:30;60,05
2017-12-06 11:45;61
2017-12-06 12:00;63,75
2017-12-06 12:15;57,85
2017-12-06 12:30;57,75
2017-12-06 12:45;56,6
2017-12-06 13:00;50,35
2017-12-06 13:15;60,25
2017-12-06 13:30;51,2
2017-12-06 13:45;56,5
2017-12-06 14:00;51,4
2017-12-06 14:15;55,7
2017-12-06 14:30;50,85
2017-12-06 14:45;56,75
2017-12-06 15:00;50,55
2017-12-06 15:15;49,85
2017-12-06 15:30;48,45
2017-12-06 15:45;46,85
2017-12-06 16:00;44,75
2017-12-06 16:15;41,35
2017-12-06 16:30;37,4
2017-12-06 16:45;35,7
2017-12-06 17:00;33,75
2017-12-06 17:15;34,2
2017-12-06 17:30;32,95
2017-12-06 17:45;31,4
2017-12-06 18:00;30
2017-12-06 18:15;28
2017-12-06 18:30;26,35
2017-12-06 18:45;21,65
2017-12-06 19:00;31,75
2017-12-06 19:15;31,5
2017-12-06 19:30;32,35
2017-12-06 19:45;31,15
2017-12-06 20:00;23,9
2017-12-06 20:15;20,9
2017-12-06 20:30;22,25
2017-12-06 20:45;21,45
2017-12-06 21:00;21,55
2017-12-06 21:15;21,5
2017-12-06 21:30;23,6
2017-12-06 21:45;24,6
2017-12-06 22:00;23,9
2017-12-06 22:15;29,5
2017-12-06 22:30;26,05
2017-12-06 22:45;18,65
2017-12-06 23:00;23,8
2017-12-06 23:15;24,55
2017-12-06 23:30;28,25
2017-12-06 23:45;22,6
2017-12-07 00:00;18,7
2017-12-07 00:15;14,6
2017-12-07 00:30;10,7
2017-12-07 00:45;10,4
2017-12-07 01:00;8,05
2017-12-07 01:15;9,95
2017-12-07 01:30;10,85
2017-12-07 01:45;11,55
2017-12-07 02:00;11
2017-12-07 02:15;8,7
2017-12-07 02:30;9,2
2017-12-07 02:45;9
2017-12-07 03:00;9,1
2017-12-07 03:15;8,3
2017-12-07 03:30;8,45
2017-12-07 03:45;7,85
2017-12-07 04:00;7,05
2017-12-07 04:15;8,3
2017-12-07 04:30;7
2017-12-07 04:45;7,55
2017-12-07 05:00;8,8
2017-12-07 05:15;8,4
2017-12-07 05:30;8,5
2017-12-07 05:45;7,9
2017-12-07 06:00;7,9
2017-12-07 06:15;9,05
2017-12-07 06:30;7,75
2017-12-07 06:45;9,2
2017-12-07 07:00;24,45
2017-12-07 07:15;24,15
2017-12-07 07:30;24,05
2017-12-07 07:45;31,1
2017-12-07 08:00;29,15
2017-12-07 08:15;31,8
2017-12-07 08:30;34,8
2017-12-07 08:45;31,8
2017-12-07 09:00;37,85
2017-12-07 09:15;85,5
2017-12-07 09:30;70
2017-12-07 09:45;69,6
2017-12-07 10:00;58,6
2017-12-07 10:15;52,65
2017-12-07 10:30;54,4
2017-12-07 10:45;50,35
2017-12-07 11:00;58,6
2017-12-07 11:15;55,25
2017-12-07 11:30;64,2
2017-12-07 11:45;56,65
2017-12-07 12:00;62,25
2017-12-07 12:15;56,35
2017-12-07 12:30;63,95
2017-12-07 12:45;56,2
2017-12-07 13:00;61,7
2017-12-07 13:15;58,8
2017-12-07 13:30;67,2
2017-12-07 13:45;54,15
2017-12-07 14:00;60,95
2017-12-07 14:15;59,3
2017-12-07 14:30;58,6
2017-12-07 14:45;58,9
2017-12-07 15:00;52,1
2017-12-07 15:15;52,55
2017-12-07 15:30;45,5
2017-12-07 15:45;45,4
2017-12-07 16:00;45,35
2017-12-07 16:15;45,1
2017-12-07 16:30;43,65
2017-12-07 16:45;39,35
2017-12-07 17:00;39,5
2017-12-07 17:15;38,9
2017-12-07 17:30;37,5
2017-12-07 17:45;36,3
2017-12-07 18:00;32,8
2017-12-07 18:15;31,4
2017-12-07 18:30;30,8
2017-12-07 18:45;27,4
2017-12-07 19:00;28,5
2017-12-07 19:15;28,45
2017-12-07 19:30;30,35
2017-12-07 19:45;31,65
2017-12-07 20:00;28,6
2017-12-07 20:15;27,9
2017-12-07 20:30;27,7
2017-12-07 20:45;28,45
2017-12-07 21:00;25,4
2017-12-07 21:15;29,55
2017-12-07 21:30;29,95
2017-12-07 21:45;26,95
2017-12-07 22:00;24,9
2017-12-07 22:15;27,95
2017-12-07 22:30;28,2
2017-12-07 22:45;19,2
2017-12-07 23:00;17,1
2017-12-07 23:15;9,1
2017-12-07 23:30;14,85
2017-12-07 23:45;13,95
2017-12-08 00:00;8,8
2017-12-08 00:15;10,95
2017-12-08 00:30;11,15
2017-12-08 00:45;12,2
2017-12-08 01:00;11,8
2017-12-08 01:15;11,9
2017-12-08 01:30;13,3
2017-12-08 01:45;13,1
2017-12-08 02:00;13,2
2017-12-08 02:15;13
2017-12-08 02:30;14,9
2017-12-08 02:45;15
2017-12-08 03:00;14,05
2017-12-08 03:15;15,3
2017-12-08 03:30;14
2017-12-08 03:45;13,65
2017-12-08 04:00;12,85
2017-12-08 04:15;13,65
2017-12-08 04:30;13,2
2017-12-08 04:45;13,85
2017-12-08 05:00;15
2017-12-08 05:15;15,2
2017-12-08 05:30;12,55
2017-12-08 05:45;14,95
2017-12-08 06:00;14,95
2017-12-08 06:15;12,55
2017-12-08 06:30;13
2017-12-08 06:45;14,4
2017-12-08 07:00;12,85
2017-12-08 07:15;16,75
2017-12-08 07:30;38,7
2017-12-08 07:45;32,15
2017-12-08 08:00;21,35
2017-12-08 08:15;26,3
2017-12-08 08:30;25,6
2017-12-08 08:45;30,1
2017-12-08 09:00;32,4
2017-12-08 09:15;34,6
2017-12-08 09:30;34,85
2017-12-08 09:45;35,8
2017-12-08 10:00;39,2
2017-12-08 10:15;39,85
2017-12-08 10:30;39
2017-12-08 10:45;41,1
2017-12-08 11:00;41,3
2017-12-08 11:15;39,4
2017-12-08 11:30;41,1
2017-12-08 11:45;41,55
2017-12-08 12:00;45,1
2017-12-08 12:15;49
2017-12-08 12:30;46,85
2017-12-08 12:45;46,15
2017-12-08 13:00;46,6
2017-12-08 13:15;50,05
2017-12-08 13:30;51
2017-12-08 13:45;50,95
2017-12-08 14:00;48,4
2017-12-08 14:15;47,8
2017-12-08 14:30;50,1
2017-12-08 14:45;49,05
2017-12-08 15:00;49,5
2017-12-08 15:15;46,15
2017-12-08 15:30;43,9
2017-12-08 15:45;43,85
2017-12-08 16:00;38,45
2017-12-08 16:15;40,85
2017-12-08 16:30;40,5
2017-12-08 16:45;41,15
2017-12-08 17:00;39,6
2017-12-08 17:15;37,25
2017-12-08 17:30;32,7
2017-12-08 17:45;30,1
2017-12-08 18:00;27,45
2017-12-08 18:15;27,95
2017-12-08 18:30;25,1
2017-12-08 18:45;26,25
2017-12-08 19:00;23,05
2017-12-08 19:15;23,7
2017-12-08 19:30;16,25
2017-12-08 19:45;21,1
2017-12-08 20:00;23,55
2017-12-08 20:15;22,65
2017-12-08 20:30;22,1
2017-12-08 20:45;23
2017-12-08 21:00;22,65
2017-12-08 21:15;25,25
2017-12-08 21:30;26,5
2017-12-08 21:45;23,95
2017-12-08 22:00;19,65
2017-12-08 22:15;18,6
2017-12-08 22:30;19,4
2017-12-08 22:45;18,05
2017-12-08 23:00;18,95
2017-12-08 23:15;20,2
2017-12-08 23:30;17,1
2017-12-08 23:45;16,4
2017-12-09 00:00;13,95
2017-12-09 00:15;12,95
2017-12-09 00:30;11,9
2017-12-09 00:45;10,9
2017-12-09 01:00;11,7
2017-12-09 01:15;12,3
2017-12-09 01:30;13,75
2017-12-09 01:45;12,9
2017-12-09 02:00;13,35
2017-12-09 02:15;14,6
2017-12-09 02:30;13,4
2017-12-09 02:45;13,35
2017-12-09 03:00;12,95
2017-12-09 03:15;13,1
2017-12-09 03:30;14,1
2017-12-09 03:45;15,2
2017-12-09 04:00;15,55
2017-12-09 04:15;16,35
2017-12-09 04:30;16,15
2017-12-09 04:45;16,15
2017-12-09 05:00;14,45
2017-12-09 05:15;14,55
2017-12-09 05:30;14,6
2017-12-09 05:45;14,45
2017-12-09 06:00;13,7
2017-12-09 06:15;15,35
2017-12-09 06:30;14,25
2017-12-09 06:45;14,2
2017-12-09 07:00;13
2017-12-09 07:15;12,05
2017-12-09 07:30;14,65
2017-12-09 07:45;12,35
2017-12-09 08:00;12
2017-12-09 08:15;15,05
2017-12-09 08:30;15,25
2017-12-09 08:45;15,9
2017-12-09 09:00;13,95
2017-12-09 09:15;13,1
2017-12-09 09:30;13,85
2017-12-09 09:45;21,75
2017-12-09 10:00;18,4
2017-12-09 10:15;17,4
2017-12-09 10:30;15,95
2017-12-09 10:45;18,65
2017-12-09 11:00;18,75
2017-12-09 11:15;18,9
2017-12-09 11:30;20,65
2017-12-09 11:45;20,3
2017-12-09 12:00;19,05
2017-12-09 12:15;19,6
2017-12-09 12:30;20,45
2017-12-09 12:45;20,1
2017-12-09 13:00;18,95
2017-12-09 13:15;20,65
2017-12-09 13:30;19,55
2017-12-09 13:45;19,95
2017-12-09 14:00;21,6
2017-12-09 14:15;20,55
2017-12-09 14:30;23,95
2017-12-09 14:45;21,95
2017-12-09 15:00;21,5
2017-12-09 15:15;21,3
2017-12-09 15:30;21,2
2017-12-09 15:45;20,9
2017-12-09 16:00;20,75
2017-12-09 16:15;19,55
2017-12-09 16:30;20,35
2017-12-09 16:45;20,9
2017-12-09 17:00;1,8
2017-12-09 17:15;22,75
2017-12-09 17:30;14,45
2017-12-09 17:45;19,55
2017-12-09 18:00;18,8
2017-12-09 18:15;16,85
2017-12-09 18:30;16,95
2017-12-09 18:45;17,9
2017-12-09 19:00;22,7
2017-12-09 19:15;21
2017-12-09 19:30;22,95
2017-12-09 19:45;21,75
2017-12-09 20:00;21,6
2017-12-09 20:15;21,7
2017-12-09 20:30;23,15
2017-12-09 20:45;22,35
2017-12-09 21:00;23,6
2017-12-09 21:15;21,55
2017-12-09 21:30;24,2
2017-12-09 21:45;21,1
2017-12-09 22:00;19,75
2017-12-09 22:15;21,9
2017-12-09 22:30;17,5
2017-12-09 22:45;17,5
2017-12-09 23:00;16,1
2017-12-09 23:15;11,6
2017-12-09 23:30;10,4
2017-12-09 23:45;12
2017-12-10 00:00;11,1
2017-12-10 00:15;11,8
2017-12-10 00:30;11,75
2017-12-10 00:45;13,95
2017-12-10 01:00;12,8
2017-12-10 01:15;14,7
2017-12-10 01:30;14,35
2017-12-10 01:45;16,05
2017-12-10 02:00;14,3
2017-12-10 02:15;17,8
2017-12-10 02:30;14,6
2017-12-10 02:45;17,85
2017-12-10 03:00;15,95
2017-12-10 03:15;17
2017-12-10 03:30;16,05
2017-12-10 03:45;16,35
2017-12-10 04:00;18,3
2017-12-10 04:15;20
2017-12-10 04:30;20,2
2017-12-10 04:45;20,1
2017-12-10 05:00;21,25
2017-12-10 05:15;19,5
2017-12-10 05:30;21,05
2017-12-10 05:45;19,35
2017-12-10 06:00;18,3
2017-12-10 06:15;18,75
2017-12-10 06:30;20
2017-12-10 06:45;19,85
2017-12-10 07:00;18,2
2017-12-10 07:15;18,45
2017-12-10 07:30;18,9
2017-12-10 07:45;18,9
2017-12-10 08:00;16,25
2017-12-10 08:15;15,05
2017-12-10 08:30;13,3
2017-12-10 08:45;16,8
2017-12-10 09:00;14,25
2017-12-10 09:15;16,25
2017-12-10 09:30;19,05
2017-12-10 09:45;21,8
2017-12-10 10:00;18,75
2017-12-10 10:15;19,95
2017-12-10 10:30;19,2
2017-12-10 10:45;19,15
2017-12-10 11:00;22,8
2017-12-10 11:15;24,4
2017-12-10 11:30;24,5
2017-12-10 11:45;23,05
2017-12-10 12:00;25,2
2017-12-10 12:15;26,2
2017-12-10 12:30;28,95
2017-12-10 12:45;27,3
2017-12-10 13:00;26,9
2017-12-10 13:15;25
2017-12-10 13:30;26,8
2017-12-10 13:45;24,4
2017-12-10 14:00;25,95
2017-12-10 14:15;25,6
2017-12-10 14:30;27,55
2017-12-10 14:45;26,6
2017-12-10 15:00;30,55
2017-12-10 15:15;28,8
2017-12-10 15:30;29,4
2017-12-10 15:45;30,05
2017-12-10 16:00;30,1
2017-12-10 16:15;31,15
2017-12-10 16:30;29,85
2017-12-10 16:45;29,45
2017-12-10 17:00;28,2
2017-12-10 17:15;26,85
2017-12-10 17:30;25,05
2017-12-10 17:45;26
2017-12-10 18:00;22,7
2017-12-10 18:15;24,05
2017-12-10 18:30;20,35
2017-12-10 18:45;22,8
2017-12-10 19:00;19,95
2017-12-10 19:15;20,05
2017-12-10 19:30;20,5
2017-12-10 19:45;23,65
2017-12-10 20:00;22,65
2017-12-10 20:15;23,95
2017-12-10 20:30;21,6
2017-12-10 20:45;23,3
2017-12-10 21:00;22,2
2017-12-10 21:15;23,95
2017-12-10 21:30;23
2017-12-10 21:45;24,2
2017-12-10 22:00;23,25
2017-12-10 22:15;24,45
2017-12-10 22:30;20,95
2017-12-10 22:45;12,85
2017-12-10 23:00;9,65
2017-12-10 23:15;5,85
2017-12-10 23:30;3,15
2017-12-10 23:45;10,05

